Year,Month,Day,Hour,Minute,Value (Times are PST for temperature in C)
2010,09,30,00,00,12.50
2010,09,30,00,01,12.50
2010,09,30,00,02,12.40
2010,09,30,00,03,12.40
2010,09,30,00,04,12.40
2010,09,30,00,05,12.40
2010,09,30,00,06,12.40
2010,09,30,00,07,12.40
2010,09,30,00,08,12.40
2010,09,30,00,09,12.30
2010,09,30,00,10,12.30
2010,09,30,00,11,12.30
2010,09,30,00,12,12.30
2010,09,30,00,13,12.30
2010,09,30,00,14,12.30
2010,09,30,00,15,12.30
2010,09,30,00,16,12.30
2010,09,30,00,17,12.30
2010,09,30,00,18,12.20
2010,09,30,00,19,12.20
2010,09,30,00,20,12.10
2010,09,30,00,21,12.10
2010,09,30,00,22,12.00
2010,09,30,00,23,12.00
2010,09,30,00,24,11.90
2010,09,30,00,25,11.80
2010,09,30,00,26,11.80
2010,09,30,00,27,11.80
2010,09,30,00,28,11.80
2010,09,30,00,29,11.80
2010,09,30,00,30,11.70
2010,09,30,00,31,11.70
2010,09,30,00,32,11.60
2010,09,30,00,33,11.60
2010,09,30,00,34,11.60
2010,09,30,00,35,11.50
2010,09,30,00,36,11.40
2010,09,30,00,37,11.40
2010,09,30,00,38,11.40
2010,09,30,00,39,11.30
2010,09,30,00,40,11.30
2010,09,30,00,41,11.30
2010,09,30,00,42,11.20
2010,09,30,00,43,11.20
2010,09,30,00,44,11.20
2010,09,30,00,45,11.20
2010,09,30,00,46,11.10
2010,09,30,00,47,11.10
2010,09,30,00,48,11.10
2010,09,30,00,49,11.10
2010,09,30,00,50,11.10
2010,09,30,00,51,11.10
2010,09,30,00,52,11.00
2010,09,30,00,53,10.90
2010,09,30,00,54,10.90
2010,09,30,00,55,10.90
2010,09,30,00,56,10.90
2010,09,30,00,57,11.00
2010,09,30,00,58,11.10
2010,09,30,00,59,11.00
2010,09,30,01,00,10.90
2010,09,30,01,01,10.90
2010,09,30,01,02,10.90
2010,09,30,01,03,10.90
2010,09,30,01,04,10.90
2010,09,30,01,05,10.90
2010,09,30,01,06,10.90
2010,09,30,01,07,10.90
2010,09,30,01,08,10.90
2010,09,30,01,09,10.90
2010,09,30,01,10,10.90
2010,09,30,01,11,10.90
2010,09,30,01,12,10.90
2010,09,30,01,13,10.90
2010,09,30,01,14,10.90
2010,09,30,01,15,10.90
2010,09,30,01,16,10.90
2010,09,30,01,17,10.80
2010,09,30,01,18,10.90
2010,09,30,01,19,10.90
2010,09,30,01,20,10.90
2010,09,30,01,21,10.90
2010,09,30,01,22,10.90
2010,09,30,01,23,11.00
2010,09,30,01,24,11.10
2010,09,30,01,25,11.10
2010,09,30,01,26,11.10
2010,09,30,01,27,11.10
2010,09,30,01,28,11.20
2010,09,30,01,29,11.20
2010,09,30,01,30,11.20
2010,09,30,01,31,11.30
2010,09,30,01,32,11.30
2010,09,30,01,33,11.40
2010,09,30,01,34,11.40
2010,09,30,01,35,11.60
2010,09,30,01,36,11.60
2010,09,30,01,37,11.60
2010,09,30,01,38,11.60
2010,09,30,01,39,11.60
2010,09,30,01,40,11.60
2010,09,30,01,41,11.60
2010,09,30,01,42,11.70
2010,09,30,01,43,11.80
2010,09,30,01,44,11.80
2010,09,30,01,45,11.80
2010,09,30,01,46,11.80
2010,09,30,01,47,11.80
2010,09,30,01,48,11.80
2010,09,30,01,49,11.80
2010,09,30,01,50,11.80
2010,09,30,01,51,11.80
2010,09,30,01,52,11.80
2010,09,30,01,53,11.80
2010,09,30,01,54,11.80
2010,09,30,01,55,11.80
2010,09,30,01,56,11.70
2010,09,30,01,57,11.80
2010,09,30,01,58,11.80
2010,09,30,01,59,11.70
2010,09,30,02,00,11.60
2010,09,30,02,01,11.70
2010,09,30,02,02,11.70
2010,09,30,02,03,11.60
2010,09,30,02,04,11.50
2010,09,30,02,05,11.40
2010,09,30,02,06,11.30
2010,09,30,02,07,11.30
2010,09,30,02,08,11.20
2010,09,30,02,09,11.20
2010,09,30,02,10,11.20
2010,09,30,02,11,11.20
2010,09,30,02,12,11.20
2010,09,30,02,13,11.30
2010,09,30,02,14,11.30
2010,09,30,02,15,11.40
2010,09,30,02,16,11.30
2010,09,30,02,17,11.30
2010,09,30,02,18,11.30
2010,09,30,02,19,11.30
2010,09,30,02,20,11.20
2010,09,30,02,21,11.20
2010,09,30,02,22,11.20
2010,09,30,02,23,11.20
2010,09,30,02,24,11.10
2010,09,30,02,25,11.10
2010,09,30,02,26,11.10
2010,09,30,02,27,11.10
2010,09,30,02,28,11.00
2010,09,30,02,29,10.90
2010,09,30,02,30,10.90
2010,09,30,02,31,10.90
2010,09,30,02,32,10.90
2010,09,30,02,33,10.80
2010,09,30,02,34,10.80
2010,09,30,02,35,10.70
2010,09,30,02,36,10.70
2010,09,30,02,37,10.60
2010,09,30,02,38,10.60
2010,09,30,02,39,10.70
2010,09,30,02,40,10.80
2010,09,30,02,41,10.90
2010,09,30,02,42,11.10
2010,09,30,02,43,11.20
2010,09,30,02,44,11.30
2010,09,30,02,45,11.40
2010,09,30,02,46,11.40
2010,09,30,02,47,11.50
2010,09,30,02,48,11.60
2010,09,30,02,49,11.70
2010,09,30,02,50,11.80
2010,09,30,02,51,11.80
2010,09,30,02,52,11.90
2010,09,30,02,53,11.90
2010,09,30,02,54,11.90
2010,09,30,02,55,12.00
2010,09,30,02,56,12.00
2010,09,30,02,57,12.00
2010,09,30,02,58,12.00
2010,09,30,02,59,12.10
2010,09,30,03,00,12.10
2010,09,30,03,01,12.10
2010,09,30,03,02,12.10
2010,09,30,03,03,12.10
2010,09,30,03,04,12.10
2010,09,30,03,05,12.10
2010,09,30,03,06,12.10
2010,09,30,03,07,12.00
2010,09,30,03,08,12.00
2010,09,30,03,09,12.00
2010,09,30,03,10,12.00
2010,09,30,03,11,12.00
2010,09,30,03,12,11.90
2010,09,30,03,13,11.90
2010,09,30,03,14,11.90
2010,09,30,03,15,11.80
2010,09,30,03,16,11.80
2010,09,30,03,17,11.80
2010,09,30,03,18,11.80
2010,09,30,03,19,11.80
2010,09,30,03,20,11.70
2010,09,30,03,21,11.70
2010,09,30,03,22,11.60
2010,09,30,03,23,11.60
2010,09,30,03,24,11.60
2010,09,30,03,25,11.50
2010,09,30,03,26,11.40
2010,09,30,03,27,11.40
2010,09,30,03,28,11.30
2010,09,30,03,29,11.20
2010,09,30,03,30,11.20
2010,09,30,03,31,11.10
2010,09,30,03,32,11.10
2010,09,30,03,33,11.10
2010,09,30,03,34,11.00
2010,09,30,03,35,10.90
2010,09,30,03,36,10.90
2010,09,30,03,37,10.90
2010,09,30,03,38,11.00
2010,09,30,03,39,11.10
2010,09,30,03,40,11.10
2010,09,30,03,41,11.10
2010,09,30,03,42,11.10
2010,09,30,03,43,11.10
2010,09,30,03,44,11.10
2010,09,30,03,45,11.10
2010,09,30,03,46,11.10
2010,09,30,03,47,11.10
2010,09,30,03,48,11.10
2010,09,30,03,49,11.10
2010,09,30,03,50,11.10
2010,09,30,03,51,11.10
2010,09,30,03,52,11.10
2010,09,30,03,53,11.10
2010,09,30,03,54,11.10
2010,09,30,03,55,11.10
2010,09,30,03,56,11.10
2010,09,30,03,57,11.10
2010,09,30,03,58,11.10
2010,09,30,03,59,11.10
2010,09,30,04,00,11.10
2010,09,30,04,01,11.10
2010,09,30,04,02,11.10
2010,09,30,04,03,11.10
2010,09,30,04,04,11.10
2010,09,30,04,05,11.10
2010,09,30,04,06,11.00
2010,09,30,04,07,11.00
2010,09,30,04,08,11.10
2010,09,30,04,09,11.10
2010,09,30,04,10,11.10
2010,09,30,04,11,11.10
2010,09,30,04,12,11.10
2010,09,30,04,13,11.10
2010,09,30,04,14,11.10
2010,09,30,04,15,11.20
2010,09,30,04,16,11.20
2010,09,30,04,17,11.20
2010,09,30,04,18,11.20
2010,09,30,04,19,11.20
2010,09,30,04,20,11.30
2010,09,30,04,21,11.30
2010,09,30,04,22,11.40
2010,09,30,04,23,11.40
2010,09,30,04,24,11.40
2010,09,30,04,25,11.40
2010,09,30,04,26,11.40
2010,09,30,04,27,11.40
2010,09,30,04,28,11.40
2010,09,30,04,29,11.40
2010,09,30,04,30,11.40
2010,09,30,04,31,11.40
2010,09,30,04,32,11.40
2010,09,30,04,33,11.40
2010,09,30,04,34,11.40
2010,09,30,04,35,11.40
2010,09,30,04,36,11.30
2010,09,30,04,37,11.30
2010,09,30,04,38,11.20
2010,09,30,04,39,11.20
2010,09,30,04,40,11.20
2010,09,30,04,41,11.10
2010,09,30,04,42,11.10
2010,09,30,04,43,11.00
2010,09,30,04,44,10.90
2010,09,30,04,45,10.90
2010,09,30,04,46,10.90
2010,09,30,04,47,10.80
2010,09,30,04,48,10.80
2010,09,30,04,49,10.70
2010,09,30,04,50,10.70
2010,09,30,04,51,10.60
2010,09,30,04,52,10.60
2010,09,30,04,53,10.60
2010,09,30,04,54,10.60
2010,09,30,04,55,10.60
2010,09,30,04,56,10.50
2010,09,30,04,57,10.40
2010,09,30,04,58,10.40
2010,09,30,04,59,10.40
2010,09,30,05,00,10.40
2010,09,30,05,01,10.40
2010,09,30,05,02,10.40
2010,09,30,05,03,10.40
2010,09,30,05,04,10.40
2010,09,30,05,05,10.40
2010,09,30,05,06,10.40
2010,09,30,05,07,10.40
2010,09,30,05,08,10.50
2010,09,30,05,09,10.60
2010,09,30,05,10,10.60
2010,09,30,05,11,10.60
2010,09,30,05,12,10.60
2010,09,30,05,13,10.60
2010,09,30,05,14,10.60
2010,09,30,05,15,10.60
2010,09,30,05,16,10.60
2010,09,30,05,17,10.60
2010,09,30,05,18,10.60
2010,09,30,05,19,10.60
2010,09,30,05,20,10.40
2010,09,30,05,21,10.40
2010,09,30,05,22,10.40
2010,09,30,05,23,10.40
2010,09,30,05,24,10.30
2010,09,30,05,25,10.30
2010,09,30,05,26,10.20
2010,09,30,05,27,10.20
2010,09,30,05,28,10.20
2010,09,30,05,29,10.20
2010,09,30,05,30,10.10
2010,09,30,05,31,10.10
2010,09,30,05,32,10.10
2010,09,30,05,33,10.10
2010,09,30,05,34,10.00
2010,09,30,05,35,9.90
2010,09,30,05,36,9.90
2010,09,30,05,37,9.90
2010,09,30,05,38,9.90
2010,09,30,05,39,9.90
2010,09,30,05,40,9.90
2010,09,30,05,41,9.90
2010,09,30,05,42,9.90
2010,09,30,05,43,9.90
2010,09,30,05,44,10.00
2010,09,30,05,45,10.10
2010,09,30,05,46,10.10
2010,09,30,05,47,10.20
2010,09,30,05,48,10.20
2010,09,30,05,49,10.20
2010,09,30,05,50,10.20
2010,09,30,05,51,10.20
2010,09,30,05,52,10.20
2010,09,30,05,53,10.30
2010,09,30,05,54,10.30
2010,09,30,05,55,10.30
2010,09,30,05,56,10.30
2010,09,30,05,57,10.30
2010,09,30,05,58,10.30
2010,09,30,05,59,10.30
2010,09,30,06,00,10.40
2010,09,30,06,01,10.40
2010,09,30,06,02,10.40
2010,09,30,06,03,10.40
2010,09,30,06,04,10.40
2010,09,30,06,05,10.30
2010,09,30,06,06,10.30
2010,09,30,06,07,10.30
2010,09,30,06,08,10.20
2010,09,30,06,09,10.20
2010,09,30,06,10,10.20
2010,09,30,06,11,10.20
2010,09,30,06,12,10.20
2010,09,30,06,13,10.20
2010,09,30,06,14,10.20
2010,09,30,06,15,10.10
2010,09,30,06,16,10.10
2010,09,30,06,17,10.10
2010,09,30,06,18,10.10
2010,09,30,06,19,10.10
2010,09,30,06,20,10.10
2010,09,30,06,21,10.10
2010,09,30,06,22,10.10
2010,09,30,06,23,10.10
2010,09,30,06,24,10.10
2010,09,30,06,25,10.00
2010,09,30,06,26,9.90
2010,09,30,06,27,9.90
2010,09,30,06,28,9.90
2010,09,30,06,29,9.90
2010,09,30,06,30,9.90
2010,09,30,06,31,9.90
2010,09,30,06,32,9.90
2010,09,30,06,33,9.90
2010,09,30,06,34,9.90
2010,09,30,06,35,9.90
2010,09,30,06,36,9.90
2010,09,30,06,37,9.90
2010,09,30,06,38,9.90
2010,09,30,06,39,9.90
2010,09,30,06,40,9.90
2010,09,30,06,41,9.90
2010,09,30,06,42,9.90
2010,09,30,06,43,9.90
2010,09,30,06,44,9.90
2010,09,30,06,45,9.90
2010,09,30,06,46,9.90
2010,09,30,06,47,9.90
2010,09,30,06,48,9.90
2010,09,30,06,49,9.90
2010,09,30,06,50,9.90
2010,09,30,06,51,9.90
2010,09,30,06,52,9.90
2010,09,30,06,53,9.90
2010,09,30,06,54,9.90
2010,09,30,06,55,10.00
2010,09,30,06,56,10.10
2010,09,30,06,57,10.10
2010,09,30,06,58,10.10
2010,09,30,06,59,10.10
2010,09,30,07,00,10.10
2010,09,30,07,01,10.10
2010,09,30,07,02,10.10
2010,09,30,07,03,10.10
2010,09,30,07,04,10.10
2010,09,30,07,05,10.10
2010,09,30,07,06,10.10
2010,09,30,07,07,10.10
2010,09,30,07,08,10.10
2010,09,30,07,09,10.10
2010,09,30,07,10,10.10
2010,09,30,07,11,10.10
2010,09,30,07,12,10.10
2010,09,30,07,13,10.10
2010,09,30,07,14,10.10
2010,09,30,07,15,10.10
2010,09,30,07,16,10.10
2010,09,30,07,17,10.10
2010,09,30,07,18,10.10
2010,09,30,07,19,10.10
2010,09,30,07,20,10.10
2010,09,30,07,21,10.10
2010,09,30,07,22,10.10
2010,09,30,07,23,10.10
2010,09,30,07,24,10.10
2010,09,30,07,25,10.10
2010,09,30,07,26,10.10
2010,09,30,07,27,10.10
2010,09,30,07,28,10.10
2010,09,30,07,29,10.10
2010,09,30,07,30,10.10
2010,09,30,07,31,10.10
2010,09,30,07,32,10.10
2010,09,30,07,33,10.10
2010,09,30,07,34,10.10
2010,09,30,07,35,10.10
2010,09,30,07,36,10.20
2010,09,30,07,37,10.20
2010,09,30,07,38,10.30
2010,09,30,07,39,10.30
2010,09,30,07,40,10.40
2010,09,30,07,41,10.40
2010,09,30,07,42,10.50
2010,09,30,07,43,10.60
2010,09,30,07,44,10.60
2010,09,30,07,45,10.70
2010,09,30,07,46,10.80
2010,09,30,07,47,10.80
2010,09,30,07,48,10.90
2010,09,30,07,49,10.90
2010,09,30,07,50,11.00
2010,09,30,07,51,11.10
2010,09,30,07,52,11.10
2010,09,30,07,53,11.10
2010,09,30,07,54,11.10
2010,09,30,07,55,11.10
2010,09,30,07,56,11.10
2010,09,30,07,57,10.90
2010,09,30,07,58,10.90
2010,09,30,07,59,10.90
2010,09,30,08,00,10.90
2010,09,30,08,01,10.90
2010,09,30,08,02,10.90
2010,09,30,08,03,10.90
2010,09,30,08,04,11.00
2010,09,30,08,05,11.10
2010,09,30,08,06,11.10
2010,09,30,08,07,11.10
2010,09,30,08,08,11.20
2010,09,30,08,09,11.20
2010,09,30,08,10,11.30
2010,09,30,08,11,11.40
2010,09,30,08,12,11.40
2010,09,30,08,13,11.50
2010,09,30,08,14,11.60
2010,09,30,08,15,11.60
2010,09,30,08,16,11.70
2010,09,30,08,17,11.80
2010,09,30,08,18,11.80
2010,09,30,08,19,11.80
2010,09,30,08,20,11.90
2010,09,30,08,21,11.90
2010,09,30,08,22,12.00
2010,09,30,08,23,12.10
2010,09,30,08,24,12.10
2010,09,30,08,25,12.20
2010,09,30,08,26,12.30
2010,09,30,08,27,12.30
2010,09,30,08,28,12.40
2010,09,30,08,29,12.40
2010,09,30,08,30,12.50
2010,09,30,08,31,12.50
2010,09,30,08,32,12.60
2010,09,30,08,33,12.70
2010,09,30,08,34,12.70
2010,09,30,08,35,12.70
2010,09,30,08,36,12.70
2010,09,30,08,37,12.60
2010,09,30,08,38,12.60
2010,09,30,08,39,12.60
2010,09,30,08,40,12.50
2010,09,30,08,41,12.60
2010,09,30,08,42,12.60
2010,09,30,08,43,12.70
2010,09,30,08,44,12.70
2010,09,30,08,45,12.80
2010,09,30,08,46,12.80
2010,09,30,08,47,12.80
2010,09,30,08,48,12.90
2010,09,30,08,49,12.90
2010,09,30,08,50,12.90
2010,09,30,08,51,13.00
2010,09,30,08,52,13.00
2010,09,30,08,53,13.00
2010,09,30,08,54,13.00
2010,09,30,08,55,13.10
2010,09,30,08,56,13.20
2010,09,30,08,57,13.30
2010,09,30,08,58,13.40
2010,09,30,08,59,13.50
2010,09,30,09,00,13.60
2010,09,30,09,01,13.60
2010,09,30,09,02,13.70
2010,09,30,09,03,13.70
2010,09,30,09,04,13.80
2010,09,30,09,05,13.80
2010,09,30,09,06,13.80
2010,09,30,09,07,13.90
2010,09,30,09,08,14.00
2010,09,30,09,09,14.00
2010,09,30,09,10,14.10
2010,09,30,09,11,14.10
2010,09,30,09,12,14.20
2010,09,30,09,13,14.20
2010,09,30,09,14,14.20
2010,09,30,09,15,14.10
2010,09,30,09,16,14.10
2010,09,30,09,17,14.10
2010,09,30,09,18,14.10
2010,09,30,09,19,14.00
2010,09,30,09,20,14.00
2010,09,30,09,21,13.90
2010,09,30,09,22,14.00
2010,09,30,09,23,14.00
2010,09,30,09,24,14.00
2010,09,30,09,25,14.00
2010,09,30,09,26,14.00
2010,09,30,09,27,14.00
2010,09,30,09,28,14.00
2010,09,30,09,29,14.10
2010,09,30,09,30,14.10
2010,09,30,09,31,14.10
2010,09,30,09,32,14.10
2010,09,30,09,33,14.10
2010,09,30,09,34,14.20
2010,09,30,09,35,14.20
2010,09,30,09,36,14.40
2010,09,30,09,37,14.40
2010,09,30,09,38,14.40
2010,09,30,09,39,14.30
2010,09,30,09,40,14.30
2010,09,30,09,41,14.20
2010,09,30,09,42,14.20
2010,09,30,09,43,14.20
2010,09,30,09,44,14.20
2010,09,30,09,45,14.20
2010,09,30,09,46,14.10
2010,09,30,09,47,14.10
2010,09,30,09,48,14.10
2010,09,30,09,49,14.10
2010,09,30,09,50,14.10
2010,09,30,09,51,14.10
2010,09,30,09,52,14.10
2010,09,30,09,53,14.10
2010,09,30,09,54,14.20
2010,09,30,09,55,14.30
2010,09,30,09,56,14.30
2010,09,30,09,57,14.30
2010,09,30,09,58,14.40
2010,09,30,09,59,14.40
2010,09,30,10,00,14.40
2010,09,30,10,01,14.50
2010,09,30,10,02,14.50
2010,09,30,10,03,14.60
2010,09,30,10,04,14.60
2010,09,30,10,05,14.60
2010,09,30,10,06,14.70
2010,09,30,10,07,14.80
2010,09,30,10,08,14.80
2010,09,30,10,09,14.80
2010,09,30,10,10,14.90
2010,09,30,10,11,14.90
2010,09,30,10,12,14.90
2010,09,30,10,13,15.00
2010,09,30,10,14,15.00
2010,09,30,10,15,14.90
2010,09,30,10,16,14.90
2010,09,30,10,17,14.90
2010,09,30,10,18,14.90
2010,09,30,10,19,14.90
2010,09,30,10,20,15.00
2010,09,30,10,21,15.10
2010,09,30,10,22,15.20
2010,09,30,10,23,15.20
2010,09,30,10,24,15.30
2010,09,30,10,25,15.40
2010,09,30,10,26,15.40
2010,09,30,10,27,15.40
2010,09,30,10,28,15.50
2010,09,30,10,29,15.50
2010,09,30,10,30,15.60
2010,09,30,10,31,15.70
2010,09,30,10,32,15.70
2010,09,30,10,33,15.60
2010,09,30,10,34,15.60
2010,09,30,10,35,15.50
2010,09,30,10,36,15.60
2010,09,30,10,37,15.60
2010,09,30,10,38,15.70
2010,09,30,10,39,15.80
2010,09,30,10,40,15.80
2010,09,30,10,41,15.80
2010,09,30,10,42,15.80
2010,09,30,10,43,15.80
2010,09,30,10,44,15.80
2010,09,30,10,45,15.80
2010,09,30,10,46,15.80
2010,09,30,10,47,15.80
2010,09,30,10,48,15.90
2010,09,30,10,49,15.90
2010,09,30,10,50,15.80
2010,09,30,10,51,15.80
2010,09,30,10,52,15.70
2010,09,30,10,53,15.60
2010,09,30,10,54,15.50
2010,09,30,10,55,15.50
2010,09,30,10,56,15.40
2010,09,30,10,57,15.30
2010,09,30,10,58,15.30
2010,09,30,10,59,15.30
2010,09,30,11,00,15.30
2010,09,30,11,01,15.30
2010,09,30,11,02,15.20
2010,09,30,11,03,15.30
2010,09,30,11,04,15.40
2010,09,30,11,05,15.50
2010,09,30,11,06,15.60
2010,09,30,11,07,15.60
2010,09,30,11,08,15.70
2010,09,30,11,09,15.80
2010,09,30,11,10,15.80
2010,09,30,11,11,15.80
2010,09,30,11,12,15.80
2010,09,30,11,13,15.80
2010,09,30,11,14,15.80
2010,09,30,11,15,15.80
2010,09,30,11,16,15.80
2010,09,30,11,17,15.80
2010,09,30,11,18,15.70
2010,09,30,11,19,15.60
2010,09,30,11,20,15.60
2010,09,30,11,21,15.60
2010,09,30,11,22,15.70
2010,09,30,11,23,15.70
2010,09,30,11,24,15.70
2010,09,30,11,25,15.80
2010,09,30,11,26,15.90
2010,09,30,11,27,15.90
2010,09,30,11,28,15.90
2010,09,30,11,29,15.80
2010,09,30,11,30,15.80
2010,09,30,11,31,15.80
2010,09,30,11,32,15.80
2010,09,30,11,33,15.80
2010,09,30,11,34,15.90
2010,09,30,11,35,16.10
2010,09,30,11,36,16.10
2010,09,30,11,37,16.30
2010,09,30,11,38,16.40
2010,09,30,11,39,16.40
2010,09,30,11,40,16.60
2010,09,30,11,41,16.80
2010,09,30,11,42,16.80
2010,09,30,11,43,16.90
2010,09,30,11,44,16.80
2010,09,30,11,45,16.80
2010,09,30,11,46,16.90
2010,09,30,11,47,16.80
2010,09,30,11,48,16.70
2010,09,30,11,49,16.60
2010,09,30,11,50,16.60
2010,09,30,11,51,16.60
2010,09,30,11,52,16.70
2010,09,30,11,53,16.70
2010,09,30,11,54,16.70
2010,09,30,11,55,16.70
2010,09,30,11,56,16.80
2010,09,30,11,57,16.90
2010,09,30,11,58,17.00
2010,09,30,11,59,17.00
2010,09,30,12,00,17.10
2010,09,30,12,01,17.20
2010,09,30,12,02,17.20
2010,09,30,12,03,17.30
2010,09,30,12,04,17.30
2010,09,30,12,05,17.50
2010,09,30,12,06,17.50
2010,09,30,12,07,17.30
2010,09,30,12,08,17.20
2010,09,30,12,09,17.10
2010,09,30,12,10,17.10
2010,09,30,12,11,17.10
2010,09,30,12,12,17.10
2010,09,30,12,13,17.20
2010,09,30,12,14,17.30
2010,09,30,12,15,17.30
2010,09,30,12,16,17.30
2010,09,30,12,17,17.30
2010,09,30,12,18,17.30
2010,09,30,12,19,17.40
2010,09,30,12,20,17.30
2010,09,30,12,21,17.30
2010,09,30,12,22,17.40
2010,09,30,12,23,17.50
2010,09,30,12,24,17.70
2010,09,30,12,25,17.70
2010,09,30,12,26,17.70
2010,09,30,12,27,17.70
2010,09,30,12,28,17.80
2010,09,30,12,29,17.90
2010,09,30,12,30,17.90
2010,09,30,12,31,17.80
2010,09,30,12,32,17.70
2010,09,30,12,33,17.70
2010,09,30,12,34,17.50
2010,09,30,12,35,17.40
2010,09,30,12,36,17.40
2010,09,30,12,37,17.30
2010,09,30,12,38,17.30
2010,09,30,12,39,17.50
2010,09,30,12,40,17.70
2010,09,30,12,41,17.90
2010,09,30,12,42,17.90
2010,09,30,12,43,17.90
2010,09,30,12,44,17.90
2010,09,30,12,45,17.90
2010,09,30,12,46,17.90
2010,09,30,12,47,17.90
2010,09,30,12,48,17.80
2010,09,30,12,49,17.70
2010,09,30,12,50,17.70
2010,09,30,12,51,17.60
2010,09,30,12,52,17.50
2010,09,30,12,53,17.50
2010,09,30,12,54,17.50
2010,09,30,12,55,17.60
2010,09,30,12,56,17.60
2010,09,30,12,57,17.60
2010,09,30,12,58,17.70
2010,09,30,12,59,17.70
2010,09,30,13,00,17.70
2010,09,30,13,01,17.70
2010,09,30,13,02,17.70
2010,09,30,13,03,17.80
2010,09,30,13,04,17.90
2010,09,30,13,05,17.90
2010,09,30,13,06,17.80
2010,09,30,13,07,17.80
2010,09,30,13,08,17.70
2010,09,30,13,09,17.70
2010,09,30,13,10,17.60
2010,09,30,13,11,17.70
2010,09,30,13,12,17.80
2010,09,30,13,13,17.80
2010,09,30,13,14,17.90
2010,09,30,13,15,18.10
2010,09,30,13,16,18.10
2010,09,30,13,17,18.20
2010,09,30,13,18,18.20
2010,09,30,13,19,18.20
2010,09,30,13,20,18.10
2010,09,30,13,21,18.10
2010,09,30,13,22,18.10
2010,09,30,13,23,18.10
2010,09,30,13,24,18.10
2010,09,30,13,25,18.10
2010,09,30,13,26,18.10
2010,09,30,13,27,18.20
2010,09,30,13,28,18.30
2010,09,30,13,29,18.40
2010,09,30,13,30,18.50
2010,09,30,13,31,18.50
2010,09,30,13,32,18.50
2010,09,30,13,33,18.50
2010,09,30,13,34,18.60
2010,09,30,13,35,18.60
2010,09,30,13,36,18.70
2010,09,30,13,37,18.80
2010,09,30,13,38,18.90
2010,09,30,13,39,18.90
2010,09,30,13,40,19.00
2010,09,30,13,41,19.10
2010,09,30,13,42,19.10
2010,09,30,13,43,19.20
2010,09,30,13,44,19.30
2010,09,30,13,45,19.30
2010,09,30,13,46,19.30
2010,09,30,13,47,19.30
2010,09,30,13,48,19.30
2010,09,30,13,49,19.30
2010,09,30,13,50,19.30
2010,09,30,13,51,19.20
2010,09,30,13,52,19.10
2010,09,30,13,53,19.00
2010,09,30,13,54,18.90
2010,09,30,13,55,18.90
2010,09,30,13,56,18.90
2010,09,30,13,57,18.90
2010,09,30,13,58,18.90
2010,09,30,13,59,18.90
2010,09,30,14,00,18.90
2010,09,30,14,01,18.90
2010,09,30,14,02,18.90
2010,09,30,14,03,18.90
2010,09,30,14,04,18.90
2010,09,30,14,05,18.90
2010,09,30,14,06,18.90
2010,09,30,14,07,18.90
2010,09,30,14,08,18.80
2010,09,30,14,09,18.60
2010,09,30,14,10,18.50
2010,09,30,14,11,18.50
2010,09,30,14,12,18.40
2010,09,30,14,13,18.40
2010,09,30,14,14,18.50
2010,09,30,14,15,18.50
2010,09,30,14,16,18.50
2010,09,30,14,17,18.50
2010,09,30,14,18,18.50
2010,09,30,14,19,18.50
2010,09,30,14,20,18.50
2010,09,30,14,21,18.50
2010,09,30,14,22,18.50
2010,09,30,14,23,18.60
2010,09,30,14,24,18.60
2010,09,30,14,25,18.60
2010,09,30,14,26,18.70
2010,09,30,14,27,18.70
2010,09,30,14,28,18.70
2010,09,30,14,29,18.80
2010,09,30,14,30,18.90
2010,09,30,14,31,18.90
2010,09,30,14,32,18.90
2010,09,30,14,33,19.00
2010,09,30,14,34,19.10
2010,09,30,14,35,19.10
2010,09,30,14,36,19.10
2010,09,30,14,37,19.10
2010,09,30,14,38,19.10
2010,09,30,14,39,19.10
2010,09,30,14,40,19.40
2010,09,30,14,41,19.50
2010,09,30,14,42,19.60
2010,09,30,14,43,19.80
2010,09,30,14,44,19.80
2010,09,30,14,45,19.80
2010,09,30,14,46,19.90
2010,09,30,14,47,19.90
2010,09,30,14,48,19.90
2010,09,30,14,49,20.00
2010,09,30,14,50,20.10
2010,09,30,14,51,20.10
2010,09,30,14,52,20.20
2010,09,30,14,53,20.20
2010,09,30,14,54,20.20
2010,09,30,14,55,20.30
2010,09,30,14,56,20.30
2010,09,30,14,57,20.40
2010,09,30,14,58,20.40
2010,09,30,14,59,20.50
2010,09,30,15,00,20.60
2010,09,30,15,01,20.50
2010,09,30,15,02,20.50
2010,09,30,15,03,20.40
2010,09,30,15,04,20.40
2010,09,30,15,05,20.40
2010,09,30,15,06,20.30
2010,09,30,15,07,20.30
2010,09,30,15,08,20.30
2010,09,30,15,09,20.30
2010,09,30,15,10,20.30
2010,09,30,15,11,20.20
2010,09,30,15,12,20.10
2010,09,30,15,13,19.90
2010,09,30,15,14,19.70
2010,09,30,15,15,19.60
2010,09,30,15,16,19.40
2010,09,30,15,17,19.40
2010,09,30,15,18,19.40
2010,09,30,15,19,19.40
2010,09,30,15,20,19.40
2010,09,30,15,21,19.40
2010,09,30,15,22,19.30
2010,09,30,15,23,19.30
2010,09,30,15,24,19.30
2010,09,30,15,25,19.30
2010,09,30,15,26,19.30
2010,09,30,15,27,19.30
2010,09,30,15,28,19.20
2010,09,30,15,29,19.20
2010,09,30,15,30,19.30
2010,09,30,15,31,19.30
2010,09,30,15,32,19.30
2010,09,30,15,33,19.30
2010,09,30,15,34,19.40
2010,09,30,15,35,19.40
2010,09,30,15,36,19.50
2010,09,30,15,37,19.50
2010,09,30,15,38,19.50
2010,09,30,15,39,19.50
2010,09,30,15,40,19.50
2010,09,30,15,41,19.50
2010,09,30,15,42,19.60
2010,09,30,15,43,19.80
2010,09,30,15,44,19.80
2010,09,30,15,45,19.90
2010,09,30,15,46,19.90
2010,09,30,15,47,20.00
2010,09,30,15,48,20.10
2010,09,30,15,49,20.20
2010,09,30,15,50,20.30
2010,09,30,15,51,20.30
2010,09,30,15,52,20.30
2010,09,30,15,53,20.40
2010,09,30,15,54,20.40
2010,09,30,15,55,20.20
2010,09,30,15,56,20.20
2010,09,30,15,57,20.20
2010,09,30,15,58,20.20
2010,09,30,15,59,20.10
2010,09,30,16,00,20.10
2010,09,30,16,01,20.00
2010,09,30,16,02,20.10
2010,09,30,16,03,19.90
2010,09,30,16,04,19.90
2010,09,30,16,05,19.80
2010,09,30,16,06,19.80
2010,09,30,16,07,19.70
2010,09,30,16,08,19.70
2010,09,30,16,09,19.70
2010,09,30,16,10,19.70
2010,09,30,16,11,19.70
2010,09,30,16,12,19.80
2010,09,30,16,13,19.80
2010,09,30,16,14,19.80
2010,09,30,16,15,19.80
2010,09,30,16,16,19.80
2010,09,30,16,17,19.90
2010,09,30,16,18,19.90
2010,09,30,16,19,19.90
2010,09,30,16,20,19.90
2010,09,30,16,21,19.90
2010,09,30,16,22,19.80
2010,09,30,16,23,19.90
2010,09,30,16,24,19.90
2010,09,30,16,25,20.00
2010,09,30,16,26,20.20
2010,09,30,16,27,20.20
2010,09,30,16,28,20.20
2010,09,30,16,29,20.30
2010,09,30,16,30,20.20
2010,09,30,16,31,20.20
2010,09,30,16,32,20.10
2010,09,30,16,33,20.00
2010,09,30,16,34,19.90
2010,09,30,16,35,19.90
2010,09,30,16,36,19.90
2010,09,30,16,37,19.90
2010,09,30,16,38,19.90
2010,09,30,16,39,19.80
2010,09,30,16,40,19.70
2010,09,30,16,41,19.70
2010,09,30,16,42,19.70
2010,09,30,16,43,19.70
2010,09,30,16,44,19.80
2010,09,30,16,45,19.90
2010,09,30,16,46,19.90
2010,09,30,16,47,20.00
2010,09,30,16,48,20.10
2010,09,30,16,49,20.20
2010,09,30,16,50,20.30
2010,09,30,16,51,20.30
2010,09,30,16,52,20.40
2010,09,30,16,53,20.50
2010,09,30,16,54,20.50
2010,09,30,16,55,20.60
2010,09,30,16,56,20.70
2010,09,30,16,57,20.70
2010,09,30,16,58,20.80
2010,09,30,16,59,20.90
2010,09,30,17,00,20.90
2010,09,30,17,01,20.90
2010,09,30,17,02,20.90
2010,09,30,17,03,20.80
2010,09,30,17,04,20.70
2010,09,30,17,05,20.60
2010,09,30,17,06,20.50
2010,09,30,17,07,20.30
2010,09,30,17,08,20.10
2010,09,30,17,09,20.00
2010,09,30,17,10,19.80
2010,09,30,17,11,19.60
2010,09,30,17,12,19.50
2010,09,30,17,13,19.50
2010,09,30,17,14,19.40
2010,09,30,17,15,19.30
2010,09,30,17,16,19.30
2010,09,30,17,17,19.30
2010,09,30,17,18,19.30
2010,09,30,17,19,19.30
2010,09,30,17,20,19.40
2010,09,30,17,21,19.50